Change the Weather History Date:

Monday, July 29, 2013

  Actual Average (KEWR) Record (KEWR)
Temperature  
Mean Temperature 78 °F 77 °F  
Max Temperature 86 °F 86 °F 100 °F (1949)
Min Temperature 69 °F 69 °F 59 °F (1937)
Degree Days  
Heating Degree Days 0 0  
Month to date heating degree days 0  
Since 1 June heating degree days 17  
Since 1 July heating degree days 0  
Cooling Degree Days 12 12  
Month to date cooling degree days 362  
Year to date cooling degree days 677  
Since 1 June cooling degree days 601  
Growing Degree Days 28 (Base 50)    
Moisture  
Dew Point 62 °F    
Average Humidity 63    
Maximum Humidity 95    
Minimum Humidity 31    
Precipitation  
Precipitation 0.02 in 0.18 in 2.97 in (2009)
Month to date precipitation 4.42  
Year to date precipitation 27.33  
Snow  
Snow 0.00 in 0.00 in 0.00 in (2002)
Month to date snowfall 0.0  
Since 1 July snowfall 0.0  
Snow Depth -    
Sea Level Pressure  
Sea Level Pressure 30.02 in    
Wind  
Wind Speed 3 mph (West)    
Max Wind Speed 15 mph    
Max Gust Speed 20 mph    
Visibility 10 miles    
Events Rain    
T = Trace of Precipitation, MM = Missing Value Source: NWS Daily Summary

Daily Weather History Graph

Daily Weather History Graph

Search for Another Location

Airport or City:

Trip Planner

Search our weather history database for the weather conditions in past years. The results will help you decide how hot, cold, wet, or windy it might be!

Date:

Astronomy

Jul. 29, 2013 Rise Set
Actual Time 5:51 AM EDT 8:15 PM EDT
Civil Twilight 5:20 AM EDT 8:45 PM EDT
Nautical Twilight 4:41 AM EDT 9:24 PM EDT
Astronomical Twilight 3:59 AM EDT 10:06 PM EDT
Moon No Moon Rise 1:33 PM EDT (7/29)
Length of Visible Light 15h 25m
Length of Day
14h 23m
Waning Gibbous, 51% of the Moon is Illuminated
Jul 29
Waning Gibbous
Jul 29
Last Quarter
Aug 6
New
Aug 14
First Quarter
Aug 20
Full

Hourly Weather History & Observations

Time (EDT) Temp. Heat Index Dew Point Humidity Pressure Visibility Wind Dir Wind Speed Gust Speed Precip Events Conditions
12:15 AM 72.5 °F - 69.4 °F 90% 29.98 in 10.0 mi Calm Calm - N/A Rain Light Rain
12:35 AM 72.5 °F - 69.3 °F 90% 29.96 in 10.0 mi Calm Calm - 0.01 in Rain Light Rain
12:55 AM 71.6 °F - 68.2 °F 89% 29.97 in 7.0 mi WSW 3.5 mph - 0.01 in   Light Drizzle
1:15 AM 71.2 °F - 67.8 °F 89% 29.97 in 10.0 mi Calm Calm - N/A Rain Light Rain
1:35 AM 70.9 °F - 67.6 °F 89% 29.96 in 10.0 mi Calm Calm - N/A   Scattered Clouds
1:55 AM 70.9 °F - 68.0 °F 91% 29.96 in 10.0 mi Calm Calm - N/A Rain Light Rain
2:15 AM 71.1 °F - 68.5 °F 92% 29.97 in 10.0 mi Calm Calm - N/A Rain Light Rain
2:35 AM 70.9 °F - 68.5 °F 92% 29.97 in 10.0 mi Calm Calm - N/A   Mostly Cloudy
2:55 AM 71.2 °F - 68.9 °F 92% 29.96 in 10.0 mi Calm Calm - N/A   Scattered Clouds
3:15 AM 71.2 °F - 69.1 °F 93% 29.99 in 10.0 mi WNW 5.8 mph - N/A Rain Light Rain
3:55 AM 71.6 °F - 69.4 °F 93% 29.98 in 10.0 mi Calm Calm - 0.01 in   Scattered Clouds
4:15 AM 71.6 °F - 69.3 °F 92% 29.97 in 10.0 mi Calm Calm - N/A   Scattered Clouds
4:55 AM 70.0 °F - 68.2 °F 94% 29.97 in 7.0 mi Calm Calm - N/A   Clear
5:15 AM 70.0 °F - 68.4 °F 95% 29.96 in 7.0 mi Calm Calm - N/A   Clear
5:55 AM 69.8 °F - 68.2 °F 95% 29.98 in 7.0 mi Calm Calm - N/A   Clear
6:15 AM 69.8 °F - 68.2 °F 95% 29.98 in 7.0 mi Calm Calm - N/A   Clear
6:35 AM 70.0 °F - 68.4 °F 95% 29.99 in 5.0 mi WSW 3.5 mph - N/A   Clear
6:55 AM 70.2 °F - 68.4 °F 94% 29.99 in 7.0 mi WNW 6.9 mph - N/A   Clear
7:15 AM 70.2 °F - 68.4 °F 94% 30.00 in 7.0 mi Calm Calm - N/A   Clear
7:35 AM 71.1 °F - 68.5 °F 92% 30.00 in 10.0 mi Calm Calm - N/A   Clear
7:55 AM 72.0 °F - 68.2 °F 88% 30.01 in 10.0 mi Calm Calm - N/A   Clear
8:15 AM 72.9 °F - 68.2 °F 85% 30.02 in 10.0 mi WNW 4.6 mph - N/A   Clear
8:35 AM 73.8 °F - 67.1 °F 80% 30.03 in 10.0 mi Calm Calm - N/A   Clear
8:55 AM 75.0 °F - 66.9 °F 76% 30.02 in 10.0 mi NNW 3.5 mph - N/A   Clear
9:15 AM 76.3 °F - 65.3 °F 69% 30.03 in 10.0 mi NW 4.6 mph - N/A   Clear
9:35 AM 77.4 °F - 65.3 °F 66% 30.03 in 10.0 mi NW 5.8 mph - N/A   Clear
9:55 AM 77.2 °F - 66.4 °F 69% 30.03 in 10.0 mi Calm Calm - N/A   Clear
10:15 AM 78.1 °F - 66.4 °F 67% 30.04 in 10.0 mi NW 6.9 mph - N/A   Clear
10:35 AM 79.2 °F - 65.8 °F 64% 30.04 in 10.0 mi WNW 5.8 mph - N/A   Clear
10:55 AM 79.5 °F - 65.5 °F 62% 30.04 in 10.0 mi WNW 4.6 mph - N/A   Clear
11:15 AM 79.9 °F - 64.8 °F 60% 30.04 in 10.0 mi Calm Calm - N/A   Clear
11:35 AM 80.6 °F 81.9 °F 63.3 °F 55% 30.04 in 10.0 mi West 5.8 mph - N/A   Clear
11:55 AM 81.7 °F 83.2 °F 64.2 °F 55% 30.03 in 10.0 mi WNW 6.9 mph - N/A   Clear
12:15 PM 81.9 °F 83.2 °F 63.7 °F 54% 30.03 in 10.0 mi Calm Calm - N/A   Clear
12:35 PM 82.4 °F 83.5 °F 63.1 °F 52% 30.02 in 10.0 mi Calm Calm - N/A   Scattered Clouds
12:55 PM 83.3 °F 84.4 °F 63.5 °F 51% 30.02 in 10.0 mi WSW 6.9 mph - N/A   Scattered Clouds
1:15 PM 83.3 °F 84.6 °F 64.0 °F 52% 30.02 in 10.0 mi West 8.1 mph - N/A   Scattered Clouds
1:35 PM 84.2 °F 85.8 °F 64.9 °F 52% 30.01 in 10.0 mi WNW 6.9 mph - N/A   Scattered Clouds
1:55 PM 84.6 °F 85.9 °F 64.2 °F 50% 30.01 in 10.0 mi West 5.8 mph - N/A   Scattered Clouds
2:15 PM 85.6 °F 86.8 °F 63.7 °F 48% 30.02 in 10.0 mi West 10.4 mph 16.1 mph N/A   Scattered Clouds
2:35 PM 85.3 °F 86.1 °F 63.1 °F 47% 30.02 in 10.0 mi West 10.4 mph - N/A   Scattered Clouds
2:55 PM 86.2 °F 86.1 °F 60.8 °F 42% 30.02 in 10.0 mi West 10.4 mph - N/A   Scattered Clouds
3:15 PM 84.4 °F 84.4 °F 60.4 °F 44% 30.02 in 10.0 mi WSW 3.5 mph - N/A   Scattered Clouds
3:35 PM 85.3 °F 85.2 °F 60.4 °F 43% 30.01 in 10.0 mi West 8.1 mph - N/A   Scattered Clouds
3:55 PM 85.6 °F 85.9 °F 61.3 °F 44% 30.01 in 10.0 mi WNW 10.4 mph - N/A   Scattered Clouds
4:15 PM 85.8 °F 85.7 °F 60.1 °F 42% 30.01 in 10.0 mi WNW 10.4 mph 17.3 mph N/A   Scattered Clouds
4:35 PM 84.2 °F 83.7 °F 57.9 °F 41% 30.02 in 10.0 mi West 10.4 mph - N/A   Clear
4:55 PM 84.6 °F 83.4 °F 55.6 °F 37% 30.02 in 10.0 mi WNW 15.0 mph - N/A   Clear
5:15 PM 84.9 °F - 51.4 °F 31% 30.02 in 10.0 mi West 9.2 mph - N/A   Clear
5:35 PM 84.4 °F - 50.7 °F 31% 30.02 in 10.0 mi West 10.4 mph 19.6 mph N/A   Clear
5:55 PM 84.2 °F - 52.2 °F 33% 30.03 in 10.0 mi WNW 10.4 mph 18.4 mph N/A   Clear
6:15 PM 83.5 °F - 52.5 °F 34% 30.03 in 10.0 mi WNW 13.8 mph 18.4 mph N/A   Clear
6:35 PM 82.9 °F - 51.8 °F 34% 30.03 in 10.0 mi West 12.7 mph 17.3 mph N/A   Clear
6:55 PM 82.4 °F - 51.6 °F 34% 30.04 in 10.0 mi WNW 10.4 mph - N/A   Clear
7:15 PM 81.7 °F - 52.0 °F 36% 30.04 in 10.0 mi West 11.5 mph - N/A   Clear
7:35 PM 80.8 °F - 52.2 °F 37% 30.05 in 10.0 mi West 9.2 mph - N/A   Clear
7:55 PM 80.2 °F - 52.3 °F 38% 30.06 in 10.0 mi West 6.9 mph - N/A   Clear
8:15 PM 79.3 °F - 52.9 °F 40% 30.06 in 10.0 mi West 6.9 mph - N/A   Clear
8:35 PM 78.4 °F - 54.0 °F 43% 30.07 in 10.0 mi West 5.8 mph - N/A   Clear
8:55 PM 77.9 °F - 54.3 °F 44% 30.07 in 10.0 mi West 6.9 mph - N/A   Clear
9:15 PM 76.6 °F - 55.2 °F 47% 30.08 in 10.0 mi West 6.9 mph - N/A   Clear
9:35 PM 76.1 °F - 55.4 °F 49% 30.09 in 10.0 mi West 6.9 mph - N/A   Clear
9:55 PM 75.0 °F - 55.8 °F 51% 30.09 in 10.0 mi West 6.9 mph - N/A   Clear
10:15 PM 74.5 °F - 56.1 °F 53% 30.10 in 10.0 mi West 6.9 mph - N/A   Clear
10:35 PM 73.4 °F - 56.3 °F 55% 30.10 in 10.0 mi West 6.9 mph - N/A   Clear
10:55 PM 72.5 °F - 56.3 °F 57% 30.10 in 10.0 mi West 6.9 mph - N/A   Clear
11:15 PM 72.3 °F - 56.5 °F 57% 30.10 in 10.0 mi West 8.1 mph - N/A   Clear
11:35 PM 71.8 °F - 56.3 °F 58% 30.11 in 10.0 mi West 8.1 mph - N/A   Clear
11:55 PM 71.2 °F - 56.3 °F 59% 30.11 in 10.0 mi West 6.9 mph - N/A   Clear